TimeCDT,TemperatureF,Dew PointF,Humidity,Sea Level PressureIn,VisibilityMPH,Wind Direction,Wind SpeedMPH,Gust SpeedMPH,PrecipitationIn,Events,Conditions,WindDirDegrees,DateUTC
12:15 AM,57.2,53.6,88,30.08,10.0,Calm,Calm,-,N/A,,Scattered Clouds,0,2013-08-10 05:15:00
12:35 AM,55.4,53.6,94,30.08,10.0,Calm,Calm,-,N/A,,Scattered Clouds,0,2013-08-10 05:35:00
12:55 AM,55.4,53.6,94,30.08,10.0,Calm,Calm,-,N/A,,Clear,0,2013-08-10 05:55:00
1:15 AM,55.4,51.8,88,30.08,10.0,Calm,Calm,-,N/A,,Scattered Clouds,0,2013-08-10 06:15:00
1:35 AM,55.4,51.8,88,30.09,10.0,Calm,Calm,-,N/A,,Scattered Clouds,0,2013-08-10 06:35:00
1:55 AM,55.4,51.8,88,30.09,10.0,Calm,Calm,-,N/A,,Scattered Clouds,0,2013-08-10 06:55:00
2:15 AM,55.4,51.8,88,30.09,10.0,Calm,Calm,-,N/A,,Scattered Clouds,0,2013-08-10 07:15:00
2:35 AM,53.6,51.8,94,30.10,10.0,Calm,Calm,-,N/A,,Scattered Clouds,0,2013-08-10 07:35:00
2:55 AM,53.6,51.8,94,30.10,10.0,Calm,Calm,-,N/A,,Scattered Clouds,0,2013-08-10 07:55:00
3:15 AM,53.6,51.8,94,30.10,10.0,Calm,Calm,-,N/A,,Scattered Clouds,0,2013-08-10 08:15:00
3:35 AM,53.6,51.8,94,30.10,7.0,Calm,Calm,-,N/A,,Scattered Clouds,0,2013-08-10 08:35:00
3:55 AM,53.6,51.8,94,30.11,10.0,Calm,Calm,-,N/A,,Mostly Cloudy,0,2013-08-10 08:55:00
4:15 AM,53.6,51.8,94,30.11,10.0,Calm,Calm,-,N/A,,Mostly Cloudy,0,2013-08-10 09:15:00
4:35 AM,53.6,51.8,94,30.11,10.0,Calm,Calm,-,N/A,,Scattered Clouds,0,2013-08-10 09:35:00
4:55 AM,53.6,51.8,94,30.11,10.0,Calm,Calm,-,N/A,,Scattered Clouds,0,2013-08-10 09:55:00
5:15 AM,53.6,51.8,94,30.12,10.0,Calm,Calm,-,N/A,,Clear,0,2013-08-10 10:15:00
5:35 AM,51.8,50.0,94,30.12,5.0,Calm,Calm,-,N/A,,Clear,0,2013-08-10 10:35:00
5:55 AM,51.8,50.0,94,30.13,7.0,Calm,Calm,-,N/A,,Clear,0,2013-08-10 10:55:00
6:15 AM,51.8,51.8,100,30.13,4.0,Calm,Calm,-,N/A,,Clear,0,2013-08-10 11:15:00
6:35 AM,51.8,50.0,94,30.13,10.0,Calm,Calm,-,N/A,,Clear,0,2013-08-10 11:35:00
6:55 AM,53.6,51.8,94,30.13,10.0,Calm,Calm,-,N/A,,Clear,0,2013-08-10 11:55:00
7:15 AM,55.4,53.6,94,30.13,10.0,Calm,Calm,-,N/A,,Clear,0,2013-08-10 12:15:00
7:35 AM,59.0,53.6,82,30.13,10.0,Calm,Calm,-,N/A,,Clear,0,2013-08-10 12:35:00
7:55 AM,60.8,53.6,77,30.14,10.0,Calm,Calm,-,N/A,,Clear,0,2013-08-10 12:55:00
8:15 AM,62.6,55.4,77,30.14,10.0,Calm,Calm,-,N/A,,Clear,0,2013-08-10 13:15:00
8:35 AM,64.4,55.4,73,30.14,10.0,Calm,Calm,-,N/A,,Clear,0,2013-08-10 13:35:00
8:55 AM,68.0,51.8,56,30.14,10.0,Calm,Calm,-,N/A,,Clear,0,2013-08-10 13:55:00
9:15 AM,68.0,51.8,56,30.14,10.0,Calm,Calm,-,N/A,,Mostly Cloudy,0,2013-08-10 14:15:00
9:35 AM,68.0,51.8,56,30.15,10.0,Calm,Calm,-,N/A,,Overcast,0,2013-08-10 14:35:00
9:55 AM,69.8,51.8,53,30.15,10.0,Calm,Calm,-,N/A,,Overcast,0,2013-08-10 14:55:00
10:15 AM,69.8,51.8,53,30.15,10.0,Calm,Calm,-,N/A,,Mostly Cloudy,0,2013-08-10 15:15:00
10:35 AM,71.6,51.8,50,30.15,10.0,Calm,Calm,-,N/A,,Mostly Cloudy,0,2013-08-10 15:35:00
10:55 AM,68.0,51.8,56,30.15,10.0,Calm,Calm,-,N/A,,Overcast,0,2013-08-10 15:55:00
11:15 AM,68.0,53.6,60,30.16,10.0,Calm,Calm,-,N/A,,Overcast,0,2013-08-10 16:15:00
11:35 AM,69.8,53.6,56,30.16,10.0,East,3.5,-,N/A,,Overcast,80,2013-08-10 16:35:00
11:55 AM,71.6,51.8,50,30.16,10.0,Calm,Calm,-,N/A,,Overcast,0,2013-08-10 16:55:00
12:15 PM,69.8,51.8,53,30.16,10.0,North,6.9,16.1,N/A,,Overcast,350,2013-08-10 17:15:00
12:35 PM,69.8,51.8,53,30.16,10.0,NNW,5.8,-,N/A,,Overcast,340,2013-08-10 17:35:00
12:55 PM,69.8,51.8,53,30.16,10.0,North,6.9,-,N/A,,Overcast,10,2013-08-10 17:55:00
1:15 PM,69.8,53.6,56,30.15,10.0,ENE,5.8,-,N/A,,Overcast,60,2013-08-10 18:15:00
1:35 PM,68.0,55.4,64,30.15,10.0,East,6.9,-,N/A,,Overcast,100,2013-08-10 18:35:00
1:55 PM,68.0,55.4,64,30.16,10.0,East,5.8,-,N/A,,Overcast,100,2013-08-10 18:55:00
2:15 PM,68.0,57.2,68,30.16,10.0,East,5.8,-,N/A,,Overcast,100,2013-08-10 19:15:00
2:35 PM,68.0,55.4,64,30.16,10.0,ESE,6.9,-,N/A,,Overcast,120,2013-08-10 19:35:00
2:55 PM,68.0,57.2,68,30.16,10.0,SE,3.5,-,N/A,,Overcast,140,2013-08-10 19:55:00
3:15 PM,68.0,57.2,68,30.15,10.0,ESE,3.5,-,N/A,,Overcast,110,2013-08-10 20:15:00
3:35 PM,69.8,55.4,60,30.15,10.0,Calm,Calm,-,N/A,,Overcast,0,2013-08-10 20:35:00
3:55 PM,69.8,55.4,60,30.14,10.0,Calm,Calm,-,N/A,,Overcast,0,2013-08-10 20:55:00
4:15 PM,69.8,55.4,60,30.14,10.0,Calm,Calm,-,N/A,,Overcast,0,2013-08-10 21:15:00
4:35 PM,69.8,55.4,60,30.13,10.0,Calm,Calm,-,N/A,,Overcast,0,2013-08-10 21:35:00
4:55 PM,71.6,55.4,57,30.12,10.0,Calm,Calm,-,N/A,,Overcast,0,2013-08-10 21:55:00
5:15 PM,69.8,55.4,60,30.12,10.0,Calm,Calm,-,N/A,,Overcast,0,2013-08-10 22:15:00
5:35 PM,69.8,55.4,60,30.13,10.0,SSE,3.5,-,N/A,,Overcast,160,2013-08-10 22:35:00
5:55 PM,69.8,55.4,60,30.12,10.0,South,3.5,-,N/A,,Overcast,190,2013-08-10 22:55:00
6:15 PM,69.8,55.4,60,30.12,10.0,Calm,Calm,-,N/A,,Mostly Cloudy,0,2013-08-10 23:15:00
6:35 PM,69.8,55.4,60,30.12,10.0,South,3.5,-,N/A,,Scattered Clouds,190,2013-08-10 23:35:00
6:55 PM,68.0,55.4,64,30.12,10.0,Calm,Calm,-,N/A,,Scattered Clouds,0,2013-08-10 23:55:00
7:15 PM,66.2,53.6,64,30.12,10.0,SSE,4.6,-,N/A,,Scattered Clouds,150,2013-08-11 00:15:00
7:35 PM,64.4,55.4,73,30.12,10.0,Calm,Calm,-,N/A,,Scattered Clouds,0,2013-08-11 00:35:00
7:55 PM,64.4,53.6,68,30.12,10.0,SSE,3.5,-,N/A,,Mostly Cloudy,160,2013-08-11 00:55:00
8:15 PM,64.4,55.4,73,30.12,10.0,Calm,Calm,-,N/A,,Overcast,0,2013-08-11 01:15:00
8:35 PM,64.4,55.4,73,30.12,10.0,Calm,Calm,-,N/A,,Overcast,0,2013-08-11 01:35:00
8:55 PM,62.6,55.4,77,30.13,10.0,Calm,Calm,-,N/A,,Overcast,0,2013-08-11 01:55:00
9:15 PM,60.8,55.4,82,30.14,10.0,Calm,Calm,-,N/A,,Overcast,0,2013-08-11 02:15:00
9:35 PM,60.8,55.4,82,30.14,10.0,Calm,Calm,-,N/A,,Mostly Cloudy,0,2013-08-11 02:35:00
9:55 PM,59.0,53.6,82,30.14,10.0,Calm,Calm,-,N/A,,Clear,0,2013-08-11 02:55:00
10:15 PM,59.0,55.4,88,30.14,10.0,Calm,Calm,-,N/A,,Clear,0,2013-08-11 03:15:00
10:35 PM,59.0,55.4,88,30.14,10.0,Calm,Calm,-,N/A,,Clear,0,2013-08-11 03:35:00
10:55 PM,57.2,55.4,94,30.14,10.0,Calm,Calm,-,N/A,,Clear,0,2013-08-11 03:55:00
11:15 PM,55.4,53.6,94,30.13,10.0,Calm,Calm,-,N/A,,Clear,0,2013-08-11 04:15:00
11:35 PM,55.4,53.6,94,30.12,10.0,Calm,Calm,-,N/A,,Clear,0,2013-08-11 04:35:00
11:55 PM,55.4,53.6,94,30.13,10.0,Calm,Calm,-,N/A,,Clear,0,2013-08-11 04:55:00